Location: Im Fang
(46.6019°N, 7.2397°E)
Time: 14:14:54
(UTC+00:00)

USA 234 - Pass Details

Date: 08 December 2019
Orbit: 1099 x 1108 km, 123.0° (Epoch: 16 January)

Event Time Altitude Azimuth Distance (km) Brightness Sun altitude
Rises 06:08:55 0° 62° (ENE) 3,921 6.8 -8.8°
Reaches altitude 10° 06:11:34 10° 55° (NE) 2,963 6.0 -8.4°
Maximum altitude 06:17:28 38° 350° (N) 1,614 3.9 -7.5°
Drops below altitude 10° 06:23:24 10° 285° (WNW) 2,965 4.9 -6.6°
Enters shadow 06:24:21 - 282° (WNW) 3,303 5.1 -6.4°
